eluniversal.com alexa rank chart, eluniversal.com alexa rank daily changes

eluniversal.com alexa rank chart, eluniversal.com alexa rank daily changes

eluniversal.com
Actual rank:
11 234

RANK HISTORY

Date Rank Diff
2017/04/20 11 234 -26
2017/04/19 11 260 -14
2017/04/18 11 274 -10
2017/04/17 11 284 -25
2017/04/16 11 309 +15
2017/04/15 11 294 +120
2017/04/14 11 174 +36
2017/04/13 11 138 +11
2017/04/12 11 127 +46
2017/04/11 11 081 +23
2017/04/10 11 058 +33
2017/04/09 11 025 -31
2017/04/08 11 056 -69
2017/04/07 11 125 -32
2017/04/06 11 157 -172
2017/04/05 11 329 -78
2017/04/04 11 407 -105
2017/04/03 11 512 -162
2017/04/02 11 674 -216
2017/04/01 11 890 -84
2017/03/31 11 974 +28
2017/03/30 11 946 -20
2017/03/29 11 966 +77
2017/03/28 11 889 +84
2017/03/27 11 805 +4
2017/03/26 11 801 +48
2017/03/25 11 753 +146
2017/03/24 11 607 +42
2017/03/23 11 565 -23
2017/03/22 11 588 +90
2017/03/21 11 498 -17
2017/03/20 11 515 +98
2017/03/19 11 417 -25
2017/03/18 11 442 +178
2017/03/17 11 264 +124
2017/03/16 11 140 -31
2017/03/15 11 171 -85
2017/03/14 11 256 -8
2017/03/13 11 264 -25
2017/03/12 11 289 -95
2017/03/11 11 384 -44
2017/03/10 11 428 -28
2017/03/09 11 456 +29
2017/03/08 11 427 -45
2017/03/07 11 472 -38
2017/03/06 11 510 +2
2017/03/01 11 508 -17
2017/02/28 11 525 -49
2017/02/27 11 574 -24
2017/02/26 11 598 -18
2017/02/25 11 616 -174
2017/02/24 11 790 -77
2017/02/23 11 867 -86
2017/02/22 11 953 -112
2017/02/21 12 065 -56
2017/02/20 12 121 -17
2017/02/19 12 138

WIDGET FOR YOUR SITE

DOMAINS WITH THE NEAREST RANK

Domain Rank
goldhdtube.com 11 229
rtl.hr 11 230
stillrealtous.com 11 231
cv.ee 11 232
zdic.net 11 233
eluniversal.com 11 234
media-l97.com 11 235
okcaller.com 11 236
3dlat.net 11 237
manaa.space 11 238
teleman.pl 11 239

DOMAINS WITH THE NEAREST RANK BY TLD .com

Domain Rank
bose.com 11 226
teambeachbody.com 11 227
psnprofiles.com 11 228
goldhdtube.com 11 229
stillrealtous.com 11 231
eluniversal.com 11 234
media-l97.com 11 235
okcaller.com 11 236
farmerama.com 11 240
gamasutra.com 11 245
chayu.com 11 246